Time,TemperatureF,DewpointF,PressureIn,WindDirection,WindDirectionDegrees,WindSpeedMPH,WindSpeedGustMPH,Humidity,HourlyPrecipIn,Conditions,Clouds,dailyrainin,SoftwareType,DateUTC
2013-03-18 00:05:00,38.3,38.0,29.76,SE,130,3.0,6.0,98,0.03,,,0.97,weatherlink.com 1.10,2013-03-18 05:05:00,
2013-03-18 00:20:00,38.5,38.0,29.77,SSE,159,0.0,3.0,98,0.03,,,0.98,weatherlink.com 1.10,2013-03-18 05:20:00,
2013-03-18 00:35:00,38.6,38.0,29.76,SSE,159,3.0,6.0,98,0.03,,,0.99,weatherlink.com 1.10,2013-03-18 05:35:00,
2013-03-18 00:50:00,38.7,38.0,29.75,SSE,155,4.0,5.0,98,0.02,,,0.99,weatherlink.com 1.10,2013-03-18 05:50:00,
2013-03-18 01:05:00,38.7,38.0,29.75,South,171,2.0,6.0,98,0.03,,,1.00,weatherlink.com 1.10,2013-03-18 06:05:00,
2013-03-18 01:20:00,38.8,38.0,29.74,SSW,198,5.0,7.0,98,0.03,,,1.01,weatherlink.com 1.10,2013-03-18 06:20:00,
2013-03-18 01:35:00,38.9,38.0,29.74,SW,230,4.0,8.0,98,0.02,,,1.01,weatherlink.com 1.10,2013-03-18 06:35:00,
2013-03-18 01:50:00,38.9,38.0,29.73,South,188,8.0,9.0,98,0.03,,,1.02,weatherlink.com 1.10,2013-03-18 06:50:00,
2013-03-18 02:05:00,39.0,39.0,29.72,South,181,2.0,11.0,98,0.03,,,1.03,weatherlink.com 1.10,2013-03-18 07:05:00,
2013-03-18 02:20:00,39.1,39.0,29.73,SSW,193,6.0,10.0,98,0.02,,,1.03,weatherlink.com 1.10,2013-03-18 07:20:00,
2013-03-18 02:35:00,39.3,39.0,29.74,SSW,204,5.0,8.0,98,0.03,,,1.04,weatherlink.com 1.10,2013-03-18 07:35:00,
2013-03-18 02:50:00,39.4,39.0,29.74,SSW,210,5.0,7.0,98,0.02,,,1.04,weatherlink.com 1.10,2013-03-18 07:50:00,
2013-03-18 03:05:00,39.6,39.0,29.75,WSW,254,2.0,7.0,98,0.02,,,1.05,weatherlink.com 1.10,2013-03-18 08:05:00,
2013-03-18 03:20:00,39.7,39.0,29.75,SW,229,2.0,9.0,98,0.02,,,0.00,weatherlink.com 1.10,2013-03-18 08:20:00,
2013-03-18 03:35:00,39.6,39.0,29.75,SW,234,7.0,10.0,98,0.02,,,0.01,weatherlink.com 1.10,2013-03-18 08:35:00,
2013-03-18 03:50:00,39.7,39.0,29.76,West,269,7.0,11.0,98,0.02,,,0.01,weatherlink.com 1.10,2013-03-18 08:50:00,
2013-03-18 04:05:00,39.8,39.0,29.75,WSW,242,7.0,11.0,98,0.02,,,0.02,weatherlink.com 1.10,2013-03-18 09:05:00,
2013-03-18 04:20:00,40.1,40.0,29.75,SW,233,4.0,11.0,98,0.02,,,0.02,weatherlink.com 1.10,2013-03-18 09:20:00,
2013-03-18 04:35:00,40.4,40.0,29.74,WNW,297,3.0,11.0,98,0.01,,,0.02,weatherlink.com 1.10,2013-03-18 09:35:00,
2013-03-18 04:50:00,40.5,40.0,29.75,WSW,254,5.0,16.0,98,0.02,,,0.03,weatherlink.com 1.10,2013-03-18 09:50:00,
2013-03-18 05:05:00,40.5,40.0,29.76,West,259,8.0,13.0,98,0.01,,,0.03,weatherlink.com 1.10,2013-03-18 10:05:00,
2013-03-18 05:20:00,40.5,40.0,29.75,WSW,239,3.0,12.0,98,0.01,,,0.03,weatherlink.com 1.10,2013-03-18 10:20:00,
2013-03-18 05:35:00,40.7,40.0,29.78,West,280,5.0,13.0,98,0.02,,,0.04,weatherlink.com 1.10,2013-03-18 10:35:00,
2013-03-18 05:50:00,40.9,40.0,29.77,West,271,11.0,16.0,98,0.01,,,0.04,weatherlink.com 1.10,2013-03-18 10:50:00,
2013-03-18 06:05:00,41.0,41.0,29.76,WNW,302,10.0,18.0,98,0.01,,,0.04,weatherlink.com 1.10,2013-03-18 11:05:00,
2013-03-18 06:20:00,41.0,41.0,29.77,NW,317,10.0,18.0,98,0.01,,,0.04,weatherlink.com 1.10,2013-03-18 11:20:00,
2013-03-18 06:35:00,40.9,40.0,29.77,WSW,239,10.0,19.0,98,0.01,,,0.05,weatherlink.com 1.10,2013-03-18 11:35:00,
2013-03-18 06:50:00,40.4,40.0,29.78,West,275,9.0,18.0,97,0.01,,,0.05,weatherlink.com 1.10,2013-03-18 11:50:00,
2013-03-18 07:05:00,39.8,39.0,29.79,WNW,293,15.0,17.0,97,0.01,,,0.05,weatherlink.com 1.10,2013-03-18 12:05:00,
2013-03-18 07:20:00,39.4,39.0,29.80,West,275,12.0,21.0,97,0.01,,,0.05,weatherlink.com 1.10,2013-03-18 12:20:00,
2013-03-18 07:35:00,39.5,39.0,29.80,WNW,286,12.0,16.0,97,0.00,,,0.05,weatherlink.com 1.10,2013-03-18 12:35:00,
2013-03-18 07:50:00,39.4,38.0,29.82,NW,305,12.0,17.0,96,0.01,,,0.06,weatherlink.com 1.10,2013-03-18 12:50:00,
2013-03-18 08:05:00,39.1,38.0,29.82,WNW,295,15.0,19.0,96,0.01,,,0.06,weatherlink.com 1.10,2013-03-18 13:05:00,
2013-03-18 08:20:00,38.9,38.0,29.83,NW,309,9.0,19.0,96,0.01,,,0.06,weatherlink.com 1.10,2013-03-18 13:20:00,
2013-03-18 08:36:00,38.9,38.0,29.84,NW,304,10.0,18.0,96,0.01,,,0.06,weatherlink.com 1.10,2013-03-18 13:36:00,
2013-03-18 08:51:00,39.0,38.0,29.86,West,275,14.0,17.0,95,0.00,,,0.06,weatherlink.com 1.10,2013-03-18 13:51:00,
2013-03-18 09:06:00,38.5,37.0,29.88,West,261,16.0,22.0,95,0.00,,,0.06,weatherlink.com 1.10,2013-03-18 14:06:00,
2013-03-18 09:21:00,38.6,37.0,29.87,WNW,302,15.0,19.0,95,0.00,,,0.06,weatherlink.com 1.10,2013-03-18 14:21:00,
2013-03-18 09:36:00,38.6,37.0,29.87,NW,311,11.0,17.0,94,0.00,,,0.06,weatherlink.com 1.10,2013-03-18 14:36:00,
2013-03-18 10:51:00,38.6,37.0,29.88,NW,309,13.0,20.0,94,0.00,,,0.06,weatherlink.com 1.10,2013-03-18 15:51:00,
2013-03-18 11:51:00,38.3,36.0,29.91,NW,315,15.0,22.0,91,0.01,,,0.07,weatherlink.com 1.10,2013-03-18 16:51:00,
2013-03-18 12:06:00,38.7,36.0,29.92,WNW,289,11.0,19.0,91,0.01,,,0.07,weatherlink.com 1.10,2013-03-18 17:06:00,
2013-03-18 12:21:00,39.0,37.0,29.92,WNW,302,10.0,21.0,92,0.00,,,0.07,weatherlink.com 1.10,2013-03-18 17:21:00,
2013-03-18 12:36:00,39.3,37.0,29.93,WNW,300,12.0,19.0,91,0.00,,,0.07,weatherlink.com 1.10,2013-03-18 17:36:00,
2013-03-18 12:51:00,39.4,37.0,29.93,NW,309,8.0,19.0,91,0.00,,,0.07,weatherlink.com 1.10,2013-03-18 17:51:00,
2013-03-18 13:06:00,39.4,37.0,29.94,NW,313,7.0,16.0,91,0.00,,,0.07,weatherlink.com 1.10,2013-03-18 18:06:00,
2013-03-18 13:21:00,39.6,37.0,29.95,West,280,13.0,19.0,91,0.00,,,0.07,weatherlink.com 1.10,2013-03-18 18:21:00,
2013-03-18 13:36:00,39.8,37.0,29.95,WNW,294,10.0,16.0,90,0.00,,,0.07,weatherlink.com 1.10,2013-03-18 18:36:00,
2013-03-18 13:51:00,41.0,39.0,29.94,NNW,344,8.0,13.0,91,0.00,,,0.07,weatherlink.com 1.10,2013-03-18 18:51:00,
2013-03-18 14:06:00,43.0,40.0,29.93,WSW,238,7.0,17.0,88,0.00,,,0.07,weatherlink.com 1.10,2013-03-18 19:06:00,
2013-03-18 14:21:00,44.1,39.0,29.93,West,265,11.0,18.0,83,0.00,,,0.07,weatherlink.com 1.10,2013-03-18 19:21:00,
2013-03-18 14:36:00,45.4,39.0,29.93,NW,326,12.0,16.0,79,0.00,,,0.07,weatherlink.com 1.10,2013-03-18 19:36:00,
2013-03-18 14:51:00,46.3,40.0,29.93,NW,307,12.0,18.0,78,0.00,,,0.07,weatherlink.com 1.10,2013-03-18 19:51:00,
2013-03-18 15:07:00,45.8,37.0,29.93,NW,312,11.0,18.0,72,0.00,,,0.07,weatherlink.com 1.10,2013-03-18 20:07:00,
2013-03-18 15:21:00,46.8,38.0,29.93,NW,306,9.0,16.0,72,0.00,,,0.07,weatherlink.com 1.10,2013-03-18 20:21:00,
2013-03-18 15:36:00,47.9,38.0,29.92,NW,320,7.0,16.0,69,0.00,,,0.07,weatherlink.com 1.10,2013-03-18 20:36:00,
2013-03-18 15:51:00,47.1,37.0,29.93,North,349,6.0,17.0,67,0.00,,,0.07,weatherlink.com 1.10,2013-03-18 20:51:00,
2013-03-18 16:06:00,48.9,36.0,29.93,WNW,297,6.0,16.0,61,0.00,,,0.07,weatherlink.com 1.10,2013-03-18 21:06:00,
2013-03-18 16:22:00,50.3,37.0,29.93,NW,318,12.0,18.0,60,0.00,,,0.07,weatherlink.com 1.10,2013-03-18 21:22:00,
2013-03-18 16:37:00,49.7,36.0,29.93,NW,309,14.0,17.0,59,0.00,,,0.07,weatherlink.com 1.10,2013-03-18 21:37:00,
2013-03-18 16:52:00,50.7,37.0,29.94,NW,316,8.0,13.0,60,0.00,,,0.07,weatherlink.com 1.10,2013-03-18 21:52:00,
2013-03-18 17:07:00,49.3,37.0,29.94,NW,315,8.0,20.0,62,0.00,,,0.07,weatherlink.com 1.10,2013-03-18 22:07:00,
2013-03-18 17:22:00,50.8,35.0,29.94,NNW,336,7.0,16.0,56,0.00,,,0.07,weatherlink.com 1.10,2013-03-18 22:22:00,
2013-03-18 17:37:00,50.9,35.0,29.94,NW,313,13.0,17.0,55,0.00,,,0.07,weatherlink.com 1.10,2013-03-18 22:37:00,
2013-03-18 17:52:00,51.2,34.0,29.94,NNW,336,10.0,18.0,52,0.00,,,0.07,weatherlink.com 1.10,2013-03-18 22:52:00,
2013-03-18 18:07:00,50.7,33.0,29.95,West,277,9.0,15.0,51,0.00,,,0.07,weatherlink.com 1.10,2013-03-18 23:07:00,
2013-03-18 18:22:00,50.3,34.0,29.95,WNW,288,11.0,16.0,53,0.00,,,0.07,weatherlink.com 1.10,2013-03-18 23:22:00,
2013-03-18 18:37:00,49.9,34.0,29.96,NW,319,7.0,14.0,55,0.00,,,0.07,weatherlink.com 1.10,2013-03-18 23:37:00,
2013-03-18 18:52:00,49.0,34.0,29.96,WSW,257,9.0,13.0,56,0.00,,,0.07,weatherlink.com 1.10,2013-03-18 23:52:00,
2013-03-18 19:07:00,47.8,33.0,29.97,WNW,303,7.0,11.0,58,0.00,,,0.07,weatherlink.com 1.10,2013-03-19 00:07:00,
2013-03-18 19:22:00,47.2,32.0,29.98,WNW,301,5.0,7.0,57,0.00,,,0.07,weatherlink.com 1.10,2013-03-19 00:22:00,
2013-03-18 19:37:00,46.7,32.0,29.98,WNW,303,4.0,6.0,56,0.00,,,0.07,weatherlink.com 1.10,2013-03-19 00:37:00,
2013-03-18 19:52:00,45.6,31.0,29.99,WNW,298,3.0,5.0,57,0.00,,,0.07,weatherlink.com 1.10,2013-03-19 00:52:00,
2013-03-18 20:07:00,45.3,30.0,29.99,WNW,294,5.0,5.0,56,0.00,,,0.07,weatherlink.com 1.10,2013-03-19 01:07:00,
2013-03-18 20:22:00,45.0,30.0,30.00,WNW,284,4.0,7.0,55,0.00,,,0.07,weatherlink.com 1.10,2013-03-19 01:22:00,
2013-03-18 20:52:00,44.1,29.0,30.01,WNW,286,4.0,5.0,55,0.00,,,0.07,weatherlink.com 1.10,2013-03-19 01:52:00,
2013-03-18 21:07:00,43.4,28.0,30.02,WNW,294,2.0,6.0,56,0.00,,,0.07,weatherlink.com 1.10,2013-03-19 02:07:00,
2013-03-18 21:22:00,43.3,28.0,30.02,WNW,287,4.0,5.0,56,0.00,,,0.07,weatherlink.com 1.10,2013-03-19 02:22:00,
2013-03-18 21:37:00,42.2,28.0,30.03,West,280,4.0,5.0,57,0.00,,,0.07,weatherlink.com 1.10,2013-03-19 02:37:00,
2013-03-18 21:52:00,42.0,28.0,30.05,West,278,3.0,5.0,59,0.00,,,0.07,weatherlink.com 1.10,2013-03-19 02:52:00,
2013-03-18 22:07:00,42.4,28.0,30.05,WNW,288,3.0,5.0,58,0.00,,,0.07,weatherlink.com 1.10,2013-03-19 03:07:00,
2013-03-18 22:22:00,41.4,29.0,30.05,WNW,286,3.0,4.0,61,0.00,,,0.07,weatherlink.com 1.10,2013-03-19 03:22:00,
2013-03-18 22:37:00,41.5,29.0,30.06,WNW,284,3.0,5.0,61,0.00,,,0.07,weatherlink.com 1.10,2013-03-19 03:37:00,
2013-03-18 22:52:00,42.0,28.0,30.06,WNW,292,3.0,4.0,59,0.00,,,0.07,weatherlink.com 1.10,2013-03-19 03:52:00,
2013-03-18 23:07:00,41.4,28.0,30.06,NW,319,10.0,10.0,59,0.00,,,0.07,weatherlink.com 1.10,2013-03-19 04:07:00,
2013-03-18 23:22:00,42.5,28.0,30.08,NNW,333,4.0,11.0,56,0.00,,,0.07,weatherlink.com 1.10,2013-03-19 04:22:00,
2013-03-18 23:37:00,41.8,27.0,30.07,NW,310,6.0,10.0,56,0.00,,,0.07,weatherlink.com 1.10,2013-03-19 04:37:00,
2013-03-18 23:52:00,41.2,26.0,30.08,NNW,340,5.0,8.0,56,0.00,,,0.07,weatherlink.com 1.10,2013-03-19 04:52:00,